Погода в Сие

Россия / Архангельская область     64°01′25″N   43°10′57″E
темп.,
°C
ветер,
м/с
пор.,
м/с
влажн.,
%
обл.,
%
осадки,
мм/ч
давл.,
гПа
погр.,
м
13 июня, вс
вс1300:00+15ююв274810 0.0 1010127
03:00+13ююв296171 0.0 1010162
06:00+19ююв385010 0.0 1009373
09:00+23ююв463429 0.0 10082373
12:00+25ю462857 0.0 10072680
15:00+25ю4532100 0.0 10062579
18:00+23ю3643100 0.0 1006869
21:00+19ююв41068100 0.1 1006483
14 июня, пн
пн1400:00+16ююв299223 0.3 1006276
03:00+15ю299711 0.3 1006263
06:00+18ююз36805 0.0 1005403
09:00+22зюз465921 0.8 10051252
12:00+23зсз585167 0.1 10061342
15:00+14зсз3789100 1.3 1009450
18:00+16сз366656 0.0 10101118
21:00+14з2262100 0.0 101122
15 июня, вт
вт1500:00+12зюз2472100 0.0 101278
03:00+11ююз279582 0.0 1012142
06:00+15ююз3568100 0.0 1012315
09:00+19ююз4645100 0.0 10111272
12:00+22ю5733100 0.0 10091860
15:00+24ююз582963 0.0 10062245
18:00+24юз48315 0.0 10042561
21:00+18ююз384719 0.0 1004166
16 июня, ср
ср1600:00+15з3957100 0.0 1005269
03:00+15зюз2763100 0.0 1005264
06:00+15з2668100 0.0 1005413
09:00+18сз3449100 0.2 10051323
12:00+20сз5632100 0.0 10062833
15:00+19сз673439 0.0 10072230
18:00+18сз573626 0.0 10091908
21:00+13ссз37509 0.0 1012631
17 июня, чт
чт1700:00+8ссв26795 0.0 1015140
03:00+6с118491 0.0 101716
06:00+11ссз016077 0.0 1018487
09:00+15зюз134292 0.0 10191660
12:00+14зсз355195 0.0 10201542
15:00+16сз364280 0.1 10201797
18:00+17зсз55285 0.0 10201733
21:00+12з124498 0.0 102116